Location: Pacheco
(37.9835°N, 122.0752°W)
Time: 10:23:42
(UTC+00:00)

Cosmos 2056 Rocket - Pass Details

Date: 13 April 2024
Orbit: 739 x 799 km, 74.0° (Epoch: 23 May)

Event Time Altitude Azimuth Distance (km) Brightness Sun altitude
Rises 12:55:49 0° 333° (NNW) 3,293 6.7 -8.2°
Reaches altitude 10° 12:58:19 10° 326° (NW) 2,366 5.9 -7.8°
Maximum altitude 13:03:19 40° 259° (WSW) 1,167 4.0 -6.8°
Drops below altitude 10° 13:08:18 10° 191° (S) 2,363 5.8 -5.9°
Sets 13:10:49 0° 184° (S) 3,288 6.6 -5.4°
